Location: Glencoe Junction
(41.7313°N, 110.5602°W)
Time: 14:39:58
(UTC+00:00)

Envisat - Visible Passes

Search period start: 24 January 2022 00:00
Search period end: 03 February 2022 00:00
Orbit: 764 x 766 km, 98.2° (Epoch: 23 January)

Date Brightness Start Highest point End Pass type
(mag) Time Alt. Az. Time Alt. Az. Time Alt. Az.
24 Jan 2.9 12:17:00 10° NNE 12:22:07 83° ESE 12:27:11 10° SSW visible
24 Jan 4.6 13:58:08 10° NNW 14:00:25 13° WNW 14:02:41 10° W visible
25 Jan 4.3 11:40:26 10° NNE 11:45:09 37° E 11:49:49 10° SSE visible
25 Jan 3.9 13:19:46 10° N 13:23:59 27° WNW 13:28:10 10° WSW visible
26 Jan 5.6 11:04:44 10° NE 11:07:59 17° E 11:11:12 10° SE visible
26 Jan 3.0 12:42:22 10° N 12:47:21 57° WNW 12:52:19 10° SSW visible
27 Jan 3.3 12:05:27 10° NNE 12:10:31 65° ESE 12:15:33 10° S visible
27 Jan 4.4 13:45:53 10° NNW 13:48:58 16° WNW 13:52:04 10° W visible
28 Jan 6.5 01:03:43 10° W 01:04:45 11° W 01:05:47 10° WNW visible
28 Jan 4.8 11:29:04 10° NE 11:33:29 29° E 11:37:52 10° SSE visible
28 Jan 3.6 13:07:56 10° N 13:12:29 33° WNW 13:16:59 10° SW visible
29 Jan 5.8 10:53:56 10° ENE 10:56:15 13° E 10:58:33 10° ESE visible
29 Jan 2.8 12:30:42 10° N 12:35:47 73° WNW 12:40:50 10° SSW visible
30 Jan 3.7 11:53:56 10° NNE 11:58:53 51° E 12:03:49 10° S visible
30 Jan 4.2 13:33:51 10° NNW 13:37:31 20° WNW 13:41:10 10° WSW visible
31 Jan 5.1 11:17:48 10° NE 11:21:48 23° E 11:25:46 10° SE visible
31 Jan 3.3 12:56:11 10° N 13:00:57 42° WNW 13:05:43 10° SW visible
01 Feb 2.9 12:19:05 10° NNE 12:24:12 88° ESE 12:29:17 10° SSW visible
01 Feb 4.7 14:00:29 10° NW 14:02:27 12° WNW 14:04:25 10° W visible
02 Feb 4.2 11:42:28 10° NNE 11:47:15 39° E 11:51:59 10° SSE visible
02 Feb 3.9 13:21:56 10° NNW 13:26:03 25° WNW 13:30:08 10° WSW visible
